sat.trackr.live / text

‹ back to catalog

STARLINK-3918

NORAD 52486 · 2022-049AM

PAYLOAD ACTIVE UNKNOWN

§ Identity

Operator
Country
US
Launch date
2022-05-06
Launch site
AFETR
Launch vehicle
Mass (kg)
RCS (m²)

Purposes: comms

External: N2YO · Heavens-Above · Gunter

§ Orbital elements

Epoch: 2026-05-25T04:34:35.557248Z

Period
95.44 min
Inclination
53.2135°
Eccentricity
0.0001386
Mean motion
15.08840136 rev/d
Perigee alt
538.8 km
Apogee alt
540.7 km
Semi-major
6,917.9 km
B*
4.4426e-5
RAAN
75.6912°
Arg perigee
96.1362°
Mean anomaly
263.9788°
Rev number
22,380

§ Raw data

STARLINK-39181 52486U 22049AM  26145.19068932  .00000419  00000+0  44426-4 0  99952 52486  53.2135  75.6912 0001386  96.1362 263.9788 15.08840136223805

JSON: /api/v1/satellites/52486 · /tle

For live sub-satellite position, see the globe view (requires WebGL).

§ Visibility from observer

Set your observer location to see the next 7 days of passes ≥ 10°. The values pass through the URL so the page stays shareable.

No JS? Fill the form by hand. The geolocation button needs JavaScript.